Weather History for Whiting Fld NAS, FL

Change the Weather History Date:

Wednesday, January 23, 2013

  Actual Average Record
Temperature  
Mean Temperature 50 °F -  
Max Temperature 66 °F 59 °F 77 °F (2002)
Min Temperature 35 °F 40 °F 24 °F (2003)
Degree Days  
Heating Degree Days 14    
Moisture  
Dew Point 38 °F    
Average Humidity 63    
Maximum Humidity 80    
Minimum Humidity 37    
Precipitation  
Precipitation 0.00 in - - ()
Sea Level Pressure  
Sea Level Pressure 30.31 in    
Wind  
Wind Speed 2 mph (SSW)    
Max Wind Speed 12 mph    
Max Gust Speed -    
Visibility 9 miles    
Events      
Averages and records for this station are not official NWS values.
T = Trace of Precipitation, MM = Missing Value Source: NWS Daily Summary

Daily Weather History Graph

Daily Weather History Graph

Search for Another Location

Airport:

Trip Planner

Search our weather history database for the weather conditions in past years. The results will help you decide how hot, cold, wet, or windy it might be!

Date:

Astronomy

Jan. 23, 2013 Rise Set
Actual Time 6:43 AM CST 5:16 PM CST
Civil Twilight 6:18 AM CST 5:42 PM CST
Nautical Twilight 5:49 AM CST 6:11 PM CST
Astronomical Twilight 5:20 AM CST 6:40 PM CST
Moon 2:29 PM CST (1/23) 3:51 AM CST (1/23)
Length of Visible Light 11h 23m
Length of Day
10h 32m
Waxing Gibbous, 89% of the Moon is Illuminated
Jan 23
Waxing Gibbous
Jan 26
Full
Feb 3
Last Quarter
Feb 10
New
Feb 17
First Quarter

Hourly Weather History & Observations

Time (CST) Temp. Windchill Dew Point Humidity Pressure Visibility Wind Dir Wind Speed Gust Speed Precip Events Conditions
12:56 AM 39.0 °F - 30.9 °F 73% 30.31 in 10.0 mi Calm Calm - 0.00 in   Clear
1:56 AM 36.0 °F - 30.0 °F 79% 30.31 in 10.0 mi Calm Calm - N/A   Clear
2:56 AM 37.0 °F - 30.9 °F 79% 30.30 in 10.0 mi Calm Calm - N/A   Clear
3:56 AM 36.0 °F - 30.0 °F 79% 30.31 in 10.0 mi Calm Calm - N/A   Clear
4:56 AM 35.1 °F - 28.9 °F 78% 30.32 in 10.0 mi Calm Calm - N/A   Clear
5:56 AM 37.0 °F 34.5 °F 30.0 °F 76% 30.34 in 7.0 mi North 3.5 mph - N/A   Scattered Clouds
6:56 AM 39.0 °F - 30.0 °F 70% 30.36 in 7.0 mi Calm Calm - N/A   Mostly Cloudy
7:56 AM 44.1 °F - 33.1 °F 65% 30.36 in 9.0 mi Calm Calm - N/A   Scattered Clouds
8:56 AM 51.1 °F - 28.9 °F 43% 30.38 in 10.0 mi East 4.6 mph - N/A   Scattered Clouds
9:56 AM 57.0 °F - 30.9 °F 37% 30.38 in 10.0 mi Calm Calm - N/A   Scattered Clouds
10:56 AM 62.1 °F - 37.0 °F 39% 30.37 in 10.0 mi Calm Calm - N/A   Partly Cloudy
11:56 AM 64.0 °F - 39.0 °F 40% 30.33 in 10.0 mi Calm Calm - N/A   Partly Cloudy
12:56 PM 66.9 °F - 41.0 °F 39% 30.30 in 10.0 mi WSW 5.8 mph - N/A   Mostly Cloudy
1:56 PM 66.0 °F - 42.1 °F 42% 30.28 in 10.0 mi SSW 4.6 mph - N/A   Mostly Cloudy
2:56 PM 66.0 °F - 44.1 °F 45% 30.27 in 10.0 mi South 11.5 mph - N/A   Scattered Clouds
3:56 PM 62.1 °F - 46.0 °F 56% 30.28 in 10.0 mi South 11.5 mph - N/A   Scattered Clouds
4:56 PM 60.1 °F - 44.1 °F 55% 30.28 in 10.0 mi South 9.2 mph - N/A   Scattered Clouds
5:56 PM 55.9 °F - 45.0 °F 67% 30.27 in 10.0 mi South 6.9 mph - N/A   Partly Cloudy
6:56 PM 55.0 °F - 45.0 °F 69% 30.28 in 10.0 mi SSW 4.6 mph - N/A   Clear
7:56 PM 55.0 °F - 46.0 °F 72% 30.28 in 9.0 mi SW 4.6 mph - N/A   Clear
8:56 PM 54.0 °F - 46.0 °F 75% 30.29 in 8.0 mi Calm Calm - N/A   Clear
9:56 PM 52.0 °F - 46.0 °F 80% 30.28 in 8.0 mi SW 5.8 mph - N/A   Clear
10:56 PM 52.0 °F - 46.0 °F 80% 30.27 in 9.0 mi WSW 5.8 mph - N/A   Clear
11:56 PM 53.1 °F - 46.9 °F 80% 30.27 in 8.0 mi WSW 6.9 mph - N/A   Clear